Volver al catálogo

STARLINK-35327

ActivoComunicacionesVLEO
NORAD 66439·PAYLOAD·🇺🇸 United States

Lanzado Nov 11, 2025 desde Cape Canaveral Space Force Station

Loading…

Próximos Pases (próximas 24 horas)

TLE

ActualizadoSource: CelesTrak SupGP

Época: Sep 14, 2026, 21:30 UTC

1 66439C 25259T   26257.89631944  .00010422  00000+0  37755-3 0  2572
2 66439  43.0001 285.4152 0001470 265.2708  54.2355 15.27566867    15

Sigue STARLINK-35327 en tiempo real con AllMySat

Download on the App Store